Precipitable_Water
1.07 1.19 1.21 1.17 1.19 1.14 1.09 1.06 1.09 1.15 1.21 1.23 1.23 1.26 1.30 1.38 1.39 1.35 1.32 1.27 1.29 1.41 1.44 1.41 1.46 1.47 1.41 1.25 1.17 1.10 1.00 1.00 0.84 0.77 0.78 0.82 0.80 0.86 0.90 0.94 0.93 0.88 0.84
1.07 1.23 1.22 1.18 1.19 1.14 1.08 1.05 1.05 1.09 1.12 1.16 1.21 1.22 1.25 1.29 1.32 1.29 1.23 1.21 1.18 1.18 1.39 1.37 1.33 1.30 1.14 0.99 0.90 0.92 0.93 0.94 0.98 1.02 0.91 0.70 0.64 0.68 0.74 0.79 0.82 0.83 0.94
1.05 1.22 1.24 1.20 1.20 1.13 1.04 1.02 1.04 1.04 1.07 1.12 1.14 1.17 1.21 1.22 1.19 1.16 1.20 1.15 1.02 1.03 1.20 1.21 1.14 1.05 0.93 0.88 0.87 0.88 0.90 0.94 0.95 0.96 0.94 0.88 0.87 0.81 0.72 0.71 0.73 0.86 0.97
1.07 1.17 1.23 1.20 1.23 1.16 1.07 1.01 1.03 1.02 1.06 1.06 1.06 1.10 1.13 1.16 1.15 1.14 1.13 1.15 0.99 0.98 0.98 0.93 0.81 0.84 0.87 0.85 0.88 0.86 0.85 0.85 0.85 0.85 0.85 0.88 0.86 0.86 0.83 0.80 0.82 0.93 1.02
1.08 1.17 1.22 1.20 1.20 1.16 1.12 1.05 1.02 1.01 1.04 1.03 1.04 1.03 1.01 1.02 1.04 1.07 1.06 0.99 1.01 0.93 0.87 0.72 0.70 0.75 0.82 0.84 0.82 0.81 0.86 0.87 0.82 0.77 0.78 0.81 0.83 0.83 0.82 0.83 0.85 0.89 0.94
1.06 1.17 1.20 1.19 1.21 1.16 1.14 1.09 1.03 0.99 0.99 1.02 1.03 1.01 0.97 0.97 1.00 0.99 0.96 1.00 1.02 0.94 0.78 0.74 0.77 0.82 0.87 0.89 0.88 0.88 0.88 0.89 0.88 0.87 0.80 0.79 0.81 0.86 0.87 0.87 0.84 0.83 0.84
1.02 1.16 1.19 1.18 1.19 1.17 1.16 1.10 1.00 1.00 0.98 0.97 0.99 0.99 0.98 0.98 0.99 0.99 0.96 0.92 1.01 0.94 0.85 0.82 0.90 0.94 0.94 0.93 0.89 0.87 0.87 0.87 0.93 0.94 0.93 0.89 0.87 0.89 0.94 0.91 0.90 0.88 0.89
1.01 1.12 1.18 1.21 1.21 1.17 1.16 1.13 1.03 0.97 0.94 0.95 0.96 0.95 0.92 0.94 1.00 1.01 0.94 0.89 0.94 0.90 0.84 0.81 0.88 0.93 0.91 0.88 0.83 0.79 0.83 0.90 0.93 0.96 1.02 1.01 0.97 0.88 0.90 0.92 0.93 0.91 0.89
1.09 1.10 1.15 1.19 1.22 1.22 1.18 1.14 1.09 1.01 0.97 0.94 0.94 0.94 0.94 0.93 0.93 1.00 1.01 0.94 0.83 0.84 0.84 0.77 0.76 0.78 0.77 0.75 0.76 0.78 0.86 0.91 0.98 1.00 1.06 1.09 1.10 1.10 1.01 0.98 0.94 0.91 0.92
1.06 1.08 1.10 1.15 1.18 1.18 1.18 1.16 1.11 1.06 1.02 0.99 0.97 0.95 0.92 0.88 0.91 0.92 0.94 0.94 0.91 0.82 0.74 0.70 0.69 0.67 0.66 0.67 0.72 0.79 0.84 0.87 0.88 1.02 1.10 1.15 1.17 1.18 1.18 1.14 1.06 0.97 0.89
1.01 1.06 1.11 1.11 1.12 1.13 1.11 1.11 1.12 1.12 1.07 1.04 1.00 0.97 0.93 0.90 0.84 0.83 0.85 0.85 0.85 0.83 0.78 0.73 0.68 0.66 0.66 0.65 0.66 0.71 0.75 0.77 0.80 0.86 1.08 1.16 1.16 1.19 1.22 1.24 1.17 1.07 1.01
0.93 0.99 1.09 1.10 1.10 1.12 1.11 1.08 1.04 1.05 1.06 1.05 1.03 1.00 0.93 0.88 0.86 0.82 0.80 0.81 0.82 0.79 0.78 0.75 0.71 0.70 0.68 0.65 0.64 0.66 0.66 0.66 0.72 0.78 0.88 1.10 1.18 1.18 1.20 1.27 1.26 1.18 1.13
1.23 1.14 1.15 1.18 1.20 1.19 1.16 1.14 1.10 1.05 0.99 0.97 0.98 1.00 0.98 0.95 0.88 0.81 0.81 0.80 0.81 0.81 0.77 0.75 0.71 0.69 0.67 0.66 0.64 0.63 0.65 0.68 0.67 0.67 0.76 0.91 1.05 1.17 1.23 1.28 1.29 1.27 1.22
1.35 1.33 1.27 1.27 1.27 1.28 1.29 1.24 1.22 1.27 1.24 1.11 1.06 1.08 1.01 0.97 0.93 0.89 0.89 0.90 0.89 0.90 0.87 0.88 0.87 0.87 0.84 0.82 0.76 0.67 0.65 0.64 0.65 0.67 0.68 0.74 0.91 1.01 1.10 1.20 1.29 1.30 1.25
1.33 1.42 1.42 1.42 1.38 1.38 1.34 1.32 1.39 1.41 1.38 1.35 1.29 1.26 1.22 1.15 1.10 1.06 1.04 1.05 1.06 1.07 1.03 1.00 0.99 0.96 0.94 0.95 0.97 0.93 0.84 0.74 0.66 0.66 0.67 0.67 0.73 0.85 0.94 1.03 1.14 1.25 1.28
1.28 1.38 1.47 1.50 1.55 1.62 1.57 1.50 1.44 1.50 1.49 1.45 1.39 1.34 1.35 1.34 1.28 1.23 1.21 1.20 1.18 1.17 1.18 1.20 1.18 1.12 1.05 1.03 0.98 0.99 0.96 0.94 0.91 0.86 0.85 0.80 0.75 0.75 0.76 0.84 0.95 1.06 1.17
1.14 1.25 1.37 1.49 1.56 1.58 1.57 1.54 1.51 1.46 1.40 1.40 1.40 1.39 1.32 1.34 1.31 1.31 1.29 1.28 1.25 1.29 1.27 1.23 1.18 1.22 1.18 1.18 1.13 1.12 1.07 1.00 0.98 0.98 0.97 0.96 0.94 0.90 0.88 0.86 0.86 0.90 1.00
1.09 1.20 1.33 1.44 1.56 1.54 1.49 1.48 1.49 1.50 1.52 1.47 1.44 1.38 1.36 1.38 1.37 1.28 1.25 1.21 1.32 1.39 1.39 1.30 1.27 1.15 1.16 1.14 1.12 1.14 1.12 1.11 1.10 1.06 1.01 0.96 0.96 0.96 0.95 0.94 0.93 0.95 0.95
0.99 1.10 1.22 1.36 1.43 1.53 1.54 1.61 1.59 1.58 1.53 1.60 1.60 1.55 1.54 1.52 1.49 1.45 1.36 1.35 1.36 1.35 1.33 1.30 1.29 1.32 1.18 1.21 1.16 1.11 1.11 1.16 1.12 1.10 1.03 1.03 1.02 0.98 0.92 0.90 0.90 0.90 0.92
0.84 0.98 1.08 1.23 1.16 1.37 1.29 1.33 1.26 1.22 1.32 1.30 1.31 1.26 1.27 1.24 1.36 1.31 1.35 1.36 1.46 1.45 1.44 1.45 1.34 1.39 1.38 1.33 1.30 1.28 1.31 1.24 1.20 1.15 1.15 1.11 1.10 1.11 1.06 1.01 0.97 0.91 0.87
0.63 0.73 0.86 0.93 1.10 1.10 1.29 1.18 1.04 1.04 1.14 1.06 1.00 0.96 0.94 0.85 0.81 0.83 0.95 1.04 1.12 1.26 1.33 1.31 1.33 1.36 1.47 1.47 1.42 1.41 1.43 1.39 1.35 1.27 1.25 1.22 1.20 1.16 1.13 1.12 1.09 1.07 1.00
0.46 0.48 0.53 0.60 0.69 0.72 0.76 0.81 0.83 0.82 0.80 0.74 0.74 0.59 0.48 0.47 0.47 0.50 0.51 0.56 0.60 0.69 0.75 0.76 0.76 0.90 0.99 1.14 1.05 1.20 1.09 1.20 1.35 1.39 1.46 1.47 1.33 1.30 1.22 1.21 1.18 1.13 1.11
0.42 0.40 0.37 0.35 0.35 0.39 0.44 0.49 0.47 0.46 0.39 0.38 0.34 0.34 0.37 0.37 0.35 0.35 0.35 0.35 0.37 0.39 0.40 0.43 0.46 0.47 0.49 0.60 0.71 0.73 0.66 0.66 0.78 1.12 1.14 1.28 1.37 1.38 1.33 1.29 1.27 1.22 1.17
0.39 0.38 0.35 0.33 0.31 0.29 0.29 0.27 0.25 0.23 0.21 0.24 0.25 0.26 0.25 0.27 0.26 0.26 0.25 0.25 0.25 0.26 0.24 0.26 0.28 0.32 0.30 0.31 0.41 0.50 0.54 0.56 0.46 0.45 0.60 0.71 0.86 1.06 1.20 1.26 1.35 1.33 1.27
0.32 0.30 0.29 0.28 0.27 0.27 0.25 0.23 0.21 0.20 0.21 0.21 0.20 0.19 0.20 0.21 0.23 0.23 0.23 0.23 0.23 0.24 0.24 0.23 0.22 0.22 0.25 0.25 0.29 0.28 0.29 0.32 0.38 0.30 0.24 0.28 0.38 0.53 0.65 0.79 0.96 1.20 1.36
0.32 0.29 0.26 0.25 0.25 0.25 0.24 0.22 0.19 0.18 0.17 0.16 0.16 0.16 0.17 0.19 0.21 0.22 0.23 0.23 0.24 0.24 0.24 0.25 0.25 0.24 0.24 0.27 0.31 0.28 0.26 0.22 0.19 0.23 0.22 0.22 0.22 0.23 0.29 0.42 0.55 0.76 0.96
Wind_Speed
9 10 11 12 13 14 14 13 13 13 13 13 12 12 11 11 10 9 9 9 9 10 11 12 11 11 11 11 12 12 12 12 11 11 11 12 12 11 11 10 9 9 8
11 11 11 12 13 13 14 14 14 14 14 13 13 12 11 10 9 9 9 9 9 9 10 10 10 10 11 11 12 12 12 11 11 11 12 11 11 10 9 8 7 7 7
11 11 11 12 12 13 13 13 14 14 13 13 12 11 10 9 9 9 9 9 9 9 9 9 9 10 11 11 12 12 11 11 11 11 10 10 9 8 7 6 6 6 5
12 12 11 11 12 12 12 12 12 13 12 12 11 11 10 9 9 8 8 8 8 8 9 9 9 10 11 11 11 11 11 10 10 9 8 8 7 6 5 5 5 4 4
12 11 11 11 11 11 11 11 11 12 12 11 11 10 10 9 8 7 8 8 8 8 8 9 10 10 11 11 11 10 9 9 8 7 6 5 5 4 4 3 3 3 3
12 11 10 10 9 9 10 10 10 10 10 10 10 10 10 9 8 7 7 7 7 8 8 9 9 10 10 9 9 8 7 6 5 5 4 4 3 3 3 3 3 3 4
11 11 10 9 9 8 8 9 9 8 8 9 9 9 9 9 9 8 7 7 7 7 8 8 8 8 8 8 7 6 5 4 3 3 3 3 3 3 4 4 5 5 5
10 10 9 8 8 7 7 7 7 7 7 6 7 7 8 8 8 8 8 7 7 7 7 7 7 7 7 6 5 4 3 3 2 2 3 4 5 5 5 6 6 6 6
9 8 8 7 7 6 6 5 5 5 5 5 5 5 5 6 6 6 6 6 6 6 6 6 6 6 5 5 4 4 3 4 5 5 6 6 7 7 7 7 6 6 6
7 7 6 6 5 5 4 4 3 3 3 3 3 3 3 3 3 3 3 3 3 3 4 4 4 5 5 5 6 6 6 7 7 8 8 7 8 9 9 9 8 8 8
5 5 4 4 4 3 3 2 2 2 1 1 1 1 1 1 1 0 0 1 2 2 3 4 5 6 7 8 9 9 10 10 10 10 10 10 10 11 12 12 12 11 12
3 3 3 3 2 2 1 1 0 0 1 1 1 2 2 2 2 2 3 4 4 5 6 7 8 9 10 11 11 12 12 13 13 13 13 13 13 13 14 15 15 15 15
3 4 4 3 3 3 2 2 2 2 2 3 3 4 4 5 5 5 6 6 7 8 9 9 10 12 13 13 14 15 15 16 16 17 17 17 17 17 17 17 18 19 19
3 4 6 5 5 5 4 4 4 4 4 5 5 6 6 7 7 8 9 9 10 11 11 13 13 14 15 16 17 18 19 19 19 20 20 21 21 21 21 21 21 22 22
6 5 5 7 7 7 7 7 7 7 7 7 7 8 9 9 9 10 11 12 13 14 15 15 16 17 18 19 20 21 21 22 23 23 24 24 25 25 26 25 25 25 26
8 8 7 7 8 8 9 9 10 10 10 9 9 10 11 12 12 13 14 14 15 17 18 19 19 20 21 22 23 24 24 25 25 26 26 27 28 28 29 29 30 30 30
9 9 10 10 9 9 9 9 10 10 11 11 12 13 14 14 15 16 17 17 18 20 21 22 23 24 25 26 26 27 27 28 28 29 29 30 30 31 32 32 33 33 33
8 10 11 11 11 10 11 11 11 11 11 12 13 14 15 15 17 18 19 20 21 22 23 24 25 26 27 28 29 30 31 31 32 32 33 33 34 34 35 35 35 35 36
9 10 11 12 13 13 12 11 11 11 12 12 12 14 15 17 18 20 21 22 23 24 25 26 28 29 30 31 32 33 33 34 35 35 35 36 36 37 37 38 39 39 39
9 10 11 13 14 13 14 12 13 13 12 13 14 16 17 18 19 21 23 24 25 26 28 28 30 31 33 33 35 37 37 37 37 38 38 39 39 39 39 39 40 41 41
10 10 11 11 12 14 12 12 12 12 12 15 16 17 19 21 22 23 23 25 26 27 28 31 32 33 33 36 38 38 39 40 40 39 39 40 39 40 41 41 41 41 42
10 10 9 8 9 10 11 12 13 13 13 15 17 18 19 20 21 22 23 25 26 28 30 32 33 34 35 36 38 39 39 38 38 40 40 41 43 43 43 44 44 44 44
10 9 8 7 8 8 10 11 12 13 13 15 15 16 17 18 19 20 21 23 24 26 28 30 31 33 34 35 36 37 39 40 45 41 45 43 43 43 44 45 46 47 47
10 9 8 8 7 7 8 8 9 10 11 13 14 15 17 18 19 21 22 23 24 25 27 28 29 30 31 32 32 34 37 40 41 44 45 47 47 48 49 49 49 49 50
10 9 8 8 7 7 7 8 8 9 11 12 14 15 16 17 18 20 21 23 24 26 27 28 29 29 30 31 31 32 34 37 38 43 46 45 47 48 50 51 53 53 53
11 10 9 8 7 7 7 7 8 9 10 11 13 14 16 17 19 21 22 24 25 26 27 28 28 28 29 29 30 31 32 32 36 38 43 46 47 46 49 50 50 52 55
Wind_Direction
114 110 103 97 93 89 86 84 87 88 89 91 94 96 98 98 98 96 99 102 103 106 111 115 118 119 118 120 123 126 125 125 125 126 128 129 130 131 130 127 125 123 122
119 115 106 100 96 91 88 87 87 89 90 91 93 95 96 95 93 95 97 103 106 111 115 118 119 120 121 123 124 125 125 124 125 126 126 127 129 131 132 131 130 129 126
120 120 110 102 98 93 89 88 89 90 90 89 89 89 90 90 92 94 100 102 105 112 121 121 122 124 124 125 124 125 124 123 125 126 127 128 129 129 132 135 137 136 135
122 121 115 107 100 95 90 89 91 90 89 88 87 85 86 87 90 93 100 103 106 113 120 124 126 129 129 129 127 125 124 124 127 128 130 132 132 135 135 141 147 152 151
121 122 118 112 105 98 92 90 91 90 88 86 86 83 81 82 89 93 99 103 106 115 119 124 128 131 132 132 131 129 127 127 129 134 137 139 143 150 156 162 171 182 188
116 120 119 115 108 102 95 91 92 92 89 86 84 81 77 78 86 95 102 106 108 116 120 126 130 134 137 137 138 138 137 134 136 144 153 161 169 183 196 203 212 219 221
114 117 117 116 111 105 99 93 91 91 88 86 83 79 77 77 82 91 100 105 110 118 125 130 136 138 141 143 146 146 146 150 156 173 196 209 221 231 233 239 241 244 240
115 117 116 115 113 109 104 98 92 89 88 87 83 79 76 76 80 87 95 102 111 120 129 136 142 145 148 151 157 161 167 188 211 227 245 244 247 248 252 255 254 251 245
117 120 119 117 113 111 107 102 96 90 88 84 83 79 75 75 78 83 91 100 110 121 130 141 150 160 168 177 189 205 227 244 253 258 264 264 257 259 260 260 256 249 243
118 122 126 124 121 116 109 105 100 93 88 86 80 74 71 71 74 81 92 106 121 137 154 168 183 198 210 223 233 244 255 262 266 264 265 269 264 262 263 262 259 256 252
128 128 132 136 134 132 126 117 103 94 82 76 65 52 40 26 21 7 212 208 208 211 218 226 232 238 244 250 254 259 264 267 269 267 265 268 270 267 267 262 262 262 261
166 165 164 166 164 159 150 151 140 341 325 315 304 305 306 298 292 286 276 267 259 256 255 255 255 257 259 261 264 265 268 270 269 268 267 267 269 272 273 266 261 263 265
206 212 212 209 209 209 224 244 267 287 293 293 291 290 289 288 285 279 277 274 271 268 266 266 266 266 267 268 268 269 270 271 270 270 268 268 269 271 272 270 265 265 267
231 235 230 230 232 237 250 258 270 282 292 290 291 291 290 290 287 284 280 277 275 272 273 272 272 272 271 272 272 272 272 272 271 271 271 270 270 271 272 272 270 268 268
243 249 244 240 245 251 257 260 264 274 284 289 288 289 288 287 287 285 283 282 279 278 276 276 275 275 275 275 275 275 275 274 273 273 273 273 271 271 272 272 271 270 270
249 250 250 251 256 256 260 265 267 272 278 283 285 289 289 287 286 283 283 283 282 281 279 279 278 278 277 277 276 276 276 276 276 275 275 274 273 272 272 271 271 270 270
254 252 253 256 259 260 263 266 272 275 276 280 282 286 287 286 286 285 284 284 285 283 281 280 280 280 279 278 278 278 277 276 276 276 276 276 275 274 274 272 271 270 270
257 256 255 256 257 260 267 270 273 278 280 283 285 288 288 289 288 287 286 285 287 285 284 283 282 281 280 280 280 279 278 278 278 277 277 276 276 275 274 274 273 271 270
265 263 260 259 259 261 265 269 276 281 287 281 293 293 292 294 292 289 289 288 289 286 285 285 283 282 282 281 281 281 279 279 279 278 278 277 276 275 274 274 273 272 270
270 271 265 260 265 259 264 267 274 278 283 286 292 299 297 297 298 295 293 291 290 287 287 287 286 285 285 283 283 280 280 279 279 278 278 277 276 276 275 274 274 273 271
275 277 272 266 258 260 260 269 277 276 281 289 296 298 301 300 298 297 296 295 294 292 290 290 288 287 287 287 285 283 280 279 278 278 278 278 277 276 275 275 275 274 272
271 275 271 265 260 260 259 267 270 277 286 291 298 301 305 305 304 303 301 298 297 293 293 294 293 289 287 289 287 284 283 280 277 280 281 279 278 277 276 276 275 274 273
264 265 264 264 264 265 267 267 272 280 288 294 301 305 309 311 312 312 310 308 306 304 301 299 297 295 291 290 291 288 284 282 284 278 281 279 281 279 278 277 276 274 274
254 253 256 261 266 270 275 279 287 292 297 302 305 307 310 313 313 313 313 312 311 310 309 306 304 301 300 297 295 294 290 288 286 283 281 281 280 280 279 279 277 276 275
244 246 253 259 266 274 282 287 292 297 300 304 308 312 314 317 319 319 318 316 315 314 312 311 309 307 306 302 301 300 296 294 289 290 288 287 284 281 280 278 278 276 275
238 241 247 252 260 273 283 292 299 304 308 312 316 317 319 320 322 323 323 322 320 319 317 314 312 311 310 308 305 305 304 302 299 295 293 293 290 288 285 283 280 277 275